Wind_Speed
34 38 41 40 40 40 39 39 38 37 36 37 37 37 37 36 36 35 34 34 33 32 31 31 30 30 29 28 28 26 26 25 24 23 22 21 20 19 18 17 16 16 15 14 13 12 11 9 9 9 9 8 8 7 6 6 7 7 8 8 9 8 7 7 7 6 4 2 1 3 6 6 5 4 3 3 2 3 2 0 2 4 5 6 6
28 35 41 40 40 40 39 39 39 38 38 38 38 37 37 37 37 36 35 35 34 33 33 32 32 31 30 29 28 27 26 25 24 23 23 22 21 20 19 18 17 16 16 15 14 13 12 10 10 10 9 8 7 7 6 7 7 8 8 8 9 8 6 6 6 4 2 2 4 5 5 5 5 4 3 3 4 5 4 2 2 3 4 5 6
29 36 41 42 41 40 40 40 39 39 38 38 38 38 38 38 38 37 36 35 34 34 34 33 32 31 29 28 26 26 26 25 24 24 23 22 22 21 20 19 18 17 17 17 16 14 12 11 11 11 10 9 8 7 7 7 8 8 8 7 8 8 6 6 6 3 0 4 7 6 6 5 5 5 4 2 5 6 4 3 3 3 4 5 7
32 36 40 41 41 41 42 41 40 39 39 39 40 39 39 39 38 37 36 36 35 34 34 33 32 30 29 28 26 25 25 25 25 25 24 23 23 22 21 20 19 18 18 18 17 15 13 12 12 11 10 9 9 8 8 8 8 9 8 7 7 6 5 5 5 3 2 4 7 6 5 5 4 5 5 4 6 6 5 6 5 4 4 6 8
37 36 39 42 43 43 43 42 41 41 41 41 41 41 41 39 38 37 36 36 36 35 34 33 32 31 30 29 28 27 27 27 27 27 26 25 24 23 22 21 20 20 20 19 18 16 14 13 12 12 11 10 9 9 8 8 9 9 8 8 8 6 4 5 5 5 4 4 6 6 5 4 4 5 5 6 7 6 7 8 6 5 6 6 7
37 37 38 41 43 44 43 43 42 43 43 42 42 41 41 40 38 38 37 37 36 35 34 33 33 32 32 32 31 31 31 30 29 29 28 26 25 24 22 21 21 21 20 20 19 17 15 14 13 12 11 10 10 9 9 9 9 10 9 9 9 8 6 6 6 6 6 5 6 6 5 3 3 4 5 6 8 7 7 8 7 6 7 7 6
33 34 35 38 42 45 45 44 44 45 44 42 42 41 41 40 39 38 38 38 37 36 35 34 34 34 34 34 33 33 32 31 30 28 27 26 25 24 23 22 22 21 21 21 20 18 17 15 14 13 12 12 10 10 10 9 10 10 11 10 9 9 8 7 6 7 8 7 6 6 6 4 3 4 5 5 6 7 8 9 9 8 8 7 7
34 34 36 39 43 45 45 45 45 45 45 43 43 42 41 41 40 39 38 38 38 37 36 35 35 35 35 35 35 34 33 31 29 27 27 26 25 25 24 23 22 22 22 21 20 19 18 17 15 15 14 13 12 11 10 10 11 11 11 11 10 9 9 7 7 9 9 9 8 7 7 6 5 5 5 5 5 6 8 10 11 10 9 9 8
36 38 41 43 44 45 44 45 46 46 45 45 44 43 42 42 41 40 40 40 39 38 37 36 36 35 36 36 36 35 34 32 30 29 28 27 26 25 25 24 23 22 22 21 20 19 19 17 17 16 16 15 13 12 11 11 11 12 12 12 11 9 9 8 8 9 10 9 9 8 8 7 7 7 7 6 6 6 7 9 11 11 10 10 9
36 40 44 46 46 45 44 43 44 46 46 46 45 44 43 43 42 42 41 41 40 39 38 37 37 37 37 37 37 36 35 34 32 31 30 28 28 27 26 25 24 23 23 22 21 20 19 18 18 18 17 16 14 13 13 12 12 12 12 12 12 10 10 9 9 10 11 10 9 9 8 7 7 7 7 7 7 7 7 7 9 10 11 10 9
36 39 42 46 47 45 43 44 44 45 47 48 47 46 45 44 44 43 42 41 41 39 38 38 37 37 38 38 37 37 36 35 34 33 32 30 29 28 27 26 25 23 23 23 22 21 20 20 19 19 18 17 16 15 14 14 13 12 13 13 12 11 10 10 10 11 11 11 11 10 9 7 7 7 7 7 7 7 7 7 7 8 9 10 10
37 39 41 45 46 45 44 45 45 45 47 48 48 47 47 46 45 45 44 43 41 39 38 38 37 37 37 37 37 37 36 36 35 35 34 32 30 29 28 27 25 24 23 23 23 23 22 21 20 20 19 19 18 17 16 15 14 13 13 13 12 11 11 11 11 11 12 12 11 11 10 9 9 7 7 7 7 6 6 6 7 8 8 9 9
39 42 45 46 48 47 46 47 47 46 46 46 48 49 49 49 48 47 46 45 43 42 41 40 39 38 37 37 36 36 36 36 36 36 35 33 31 30 29 28 26 25 24 24 24 23 23 22 21 21 21 20 19 18 17 16 15 15 14 13 13 12 11 11 11 11 12 12 12 13 12 11 9 8 7 7 7 7 7 6 7 8 7 7 8
40 45 49 50 51 51 50 50 49 47 46 46 47 49 50 50 50 49 49 47 46 44 43 42 41 40 38 37 36 36 36 35 36 36 36 35 33 32 30 29 28 27 25 24 23 22 22 22 21 21 21 21 20 19 18 17 16 16 15 14 13 13 12 12 11 11 12 13 13 14 13 11 10 9 9 8 7 7 6 6 7 7 6 6 7
39 44 50 53 54 54 52 52 50 48 47 47 47 49 50 51 50 50 50 50 48 47 45 44 43 41 40 39 38 36 35 35 35 34 34 34 33 33 31 30 29 28 26 24 22 21 21 21 21 21 21 22 21 20 19 18 17 16 16 15 15 14 13 13 12 12 13 13 14 14 13 12 11 10 10 9 8 8 7 7 6 5 5 5 6
37 42 50 54 54 54 54 53 52 50 49 49 49 49 50 51 50 50 50 50 50 49 48 46 44 42 41 40 39 38 37 36 36 34 33 32 32 32 31 29 29 28 27 26 24 22 21 20 21 21 22 22 22 21 20 19 18 17 17 16 16 15 15 14 13 13 14 14 14 13 13 12 11 11 11 10 9 9 9 9 8 6 5 5 5
38 43 51 56 55 54 54 54 54 53 52 51 51 49 49 50 50 50 50 51 51 50 49 47 46 44 42 41 40 40 39 38 37 36 34 33 33 31 30 29 28 28 27 27 26 24 22 21 21 21 22 23 22 22 21 19 18 18 18 18 17 17 16 16 14 14 14 14 14 13 12 12 12 11 12 11 10 9 8 9 9 9 8 6 5
40 46 51 53 54 54 55 56 56 56 54 52 51 49 50 50 50 51 51 51 52 51 50 49 48 46 44 43 42 41 40 39 38 37 35 35 34 32 31 31 30 28 27 27 27 26 24 23 22 22 23 23 23 22 21 20 19 19 19 19 18 18 18 18 16 15 15 14 14 13 12 12 12 12 12 11 11 10 9 9 10 10 10 9 8
37 44 47 49 53 55 56 57 57 57 56 54 52 51 51 51 51 52 51 51 51 51 51 51 50 48 47 45 43 42 41 41 40 38 37 36 35 33 32 31 31 30 29 28 27 27 26 25 24 24 24 24 24 23 22 20 20 20 20 20 20 19 20 19 18 16 16 15 14 13 13 13 12 12 12 12 12 11 10 10 10 11 12 11 11
37 41 44 49 53 55 57 58 58 58 58 56 54 54 54 53 52 52 52 52 53 52 52 52 51 49 48 47 45 44 43 42 41 40 39 38 36 35 34 32 31 30 30 30 29 29 28 27 26 25 25 25 25 24 24 22 21 22 22 22 22 21 21 20 19 19 18 16 15 14 14 13 13 13 13 13 12 12 12 12 11 12 12 12 13
39 40 44 48 51 52 54 56 57 57 57 56 56 56 56 55 55 54 53 53 53 53 53 52 50 50 49 48 46 45 44 43 43 42 41 40 39 37 35 33 32 31 30 31 30 31 30 29 28 27 26 26 26 25 25 23 23 23 23 23 23 23 23 22 21 21 20 18 17 16 15 15 14 14 14 14 14 13 13 13 13 13 13 13 13
37 41 43 45 47 50 50 52 55 56 56 56 56 56 57 57 57 56 55 55 54 53 53 52 50 49 49 47 46 46 45 45 44 44 43 42 41 39 37 35 34 33 31 31 31 31 32 32 31 30 29 28 27 26 25 24 24 24 24 24 25 25 25 24 23 22 21 20 19 18 17 16 16 15 15 15 15 15 14 14 13 13 13 13 13
31 34 36 39 43 46 47 49 53 54 56 56 55 56 57 58 58 58 57 57 56 55 54 52 50 49 48 47 46 46 45 45 45 45 45 44 42 40 39 37 36 35 33 33 32 31 32 33 33 33 32 31 30 28 27 26 25 25 25 25 26 26 26 26 25 24 23 22 21 20 19 18 17 16 16 16 16 16 16 15 14 14 14 14 13
27 26 29 34 39 42 43 46 49 51 53 55 55 57 58 58 58 58 58 57 57 56 56 54 52 50 49 48 47 47 46 46 46 47 46 45 44 42 41 39 38 37 36 34 33 32 32 33 35 35 35 34 33 31 29 28 26 26 26 26 27 27 27 27 26 25 23 23 23 22 21 20 18 17 18 17 17 17 17 16 16 15 15 15 14
28 27 28 30 34 38 40 43 46 48 51 53 55 57 57 57 58 58 58 58 57 57 57 56 53 52 51 50 49 48 47 47 47 47 46 44 44 43 42 41 40 39 38 36 34 33 33 34 36 37 37 36 36 34 32 29 28 28 27 28 28 28 28 28 27 25 24 23 23 23 22 21 19 19 20 19 18 18 18 18 17 16 16 16 16
24 28 29 29 31 35 37 40 43 47 50 52 53 54 56 56 57 57 57 57 57 57 57 57 55 54 53 52 51 50 49 49 48 47 45 44 44 43 42 41 40 40 40 38 36 35 34 35 36 37 38 37 37 36 34 31 30 29 29 29 30 30 29 29 28 26 25 24 24 23 23 22 21 21 21 21 20 19 19 18 17 17 16 16 17
19 24 27 27 29 33 35 38 41 44 48 50 51 53 54 54 55 55 55 55 56 56 56 57 56 54 54 54 53 52 51 50 48 46 45 44 44 44 43 41 40 41 41 40 38 36 35 36 36 37 38 38 38 38 35 32 31 31 31 30 31 31 31 31 29 27 26 26 25 24 24 23 22 22 22 23 23 22 21 20 18 17 16 17 17
18 21 25 26 28 31 33 36 39 42 44 47 50 52 52 52 53 53 53 54 55 55 56 56 55 54 54 54 54 53 51 50 49 47 46 46 45 44 43 42 41 41 42 40 38 37 36 36 36 37 38 39 39 39 37 35 34 33 33 32 32 32 32 32 31 29 28 28 27 26 26 25 24 23 23 24 24 24 23 21 20 18 18 18 18
18 20 22 24 27 29 31 33 36 39 41 45 48 50 50 51 51 52 53 53 54 55 55 54 54 54 54 54 54 53 52 51 50 48 48 47 47 45 44 43 42 42 42 40 39 37 37 37 37 37 39 40 41 41 39 37 36 35 35 34 33 33 33 33 32 30 29 29 29 29 28 27 25 23 23 23 24 24 23 22 21 20 19 19 19
17 18 20 21 24 26 27 30 34 36 39 42 45 48 49 50 51 51 52 53 53 54 53 53 54 54 53 53 53 52 52 52 51 50 50 49 48 47 45 44 43 42 42 42 40 39 39 39 38 38 40 41 43 43 41 39 37 36 36 36 35 34 34 33 32 31 30 30 30 30 29 28 26 25 24 24 23 22 22 22 22 21 21 21 20
17 15 16 17 20 22 24 27 31 34 37 40 43 46 47 49 50 50 50 51 53 52 52 52 53 53 53 52 52 51 52 52 52 51 51 49 49 48 46 45 44 44 44 43 42 41 40 40 39 39 40 43 45 45 43 40 38 37 37 37 36 35 34 34 33 32 32 31 30 30 30 29 28 26 26 25 24 22 21 22 23 23 22 22 21
21 18 16 16 17 18 20 24 28 31 35 38 40 43 46 48 49 49 48 50 51 51 51 52 52 52 52 51 51 52 52 51 51 51 51 50 49 48 47 46 45 45 44 44 44 43 41 40 40 41 42 44 46 46 44 41 39 38 38 38 38 36 35 35 34 33 32 31 31 30 30 30 29 28 28 27 25 23 22 22 24 24 23 22 22
26 24 21 19 18 17 17 19 23 27 31 34 37 41 44 46 48 48 48 50 51 50 50 51 52 52 51 51 51 52 52 52 51 51 50 50 49 49 48 47 46 45 45 45 45 43 42 41 42 42 43 44 46 47 45 42 40 39 39 39 39 38 37 36 34 33 32 31 31 31 31 30 29 29 30 29 26 23 23 24 24 23 23 22 22
27 27 25 23 21 19 18 17 18 21 26 30 35 38 39 42 46 47 48 49 50 50 50 51 51 52 51 51 51 51 52 52 51 51 50 50 50 49 49 48 48 47 46 47 47 45 44 43 43 43 43 44 46 48 46 43 42 41 40 40 40 39 37 36 35 34 33 32 31 31 32 31 30 30 31 29 26 24 24 24 25 24 23 22 22
25 25 26 25 23 22 21 20 17 18 22 29 33 36 38 41 43 44 45 47 48 49 49 50 51 51 50 51 52 52 52 52 51 51 50 50 50 49 49 49 49 49 49 48 47 46 45 45 44 43 43 44 46 48 47 45 43 42 41 41 41 40 38 37 36 35 34 33 32 31 30 30 30 31 31 27 24 23 23 25 25 24 23 22 23
22 24 26 26 25 24 24 21 17 15 20 26 30 33 37 40 41 42 43 44 46 47 47 48 50 50 50 50 50 50 51 51 50 50 50 50 50 50 49 49 49 50 49 48 48 48 47 46 45 44 44 45 46 48 47 46 44 43 42 42 42 41 40 39 37 36 35 34 33 30 29 29 30 31 30 25 22 21 22 24 25 24 22 22 23
20 22 24 25 25 24 22 19 16 15 19 23 28 32 35 38 40 41 41 42 44 45 45 47 48 49 50 49 49 49 49 49 49 50 50 50 50 49 49 48 48 49 49 49 49 47 45 45 46 45 45 45 46 47 48 46 45 44 44 43 43 42 41 41 38 36 35 35 33 31 29 29 31 32 28 24 22 22 23 24 25 24 23 23 24
15 17 19 21 21 20 18 15 14 15 17 20 24 29 32 35 37 39 40 42 43 43 44 45 46 48 49 48 46 47 48 49 50 50 50 49 49 49 49 48 48 48 50 51 49 45 43 45 48 47 46 46 45 46 47 46 45 45 45 45 43 42 42 41 39 37 36 35 33 31 29 31 32 31 27 24 22 23 24 25 25 24 23 23 24
10 11 12 14 14 14 13 12 12 14 15 17 20 24 28 31 34 37 39 40 41 41 41 43 45 47 47 45 44 46 48 48 49 49 49 49 49 49 49 49 49 49 49 48 45 43 43 45 47 48 47 46 45 45 46 46 45 46 46 45 43 42 42 41 39 37 36 35 34 32 32 33 32 29 26 24 23 23 25 26 25 24 23 23 22
6 5 5 5 7 8 10 10 11 13 14 14 16 19 23 27 30 34 36 37 37 38 39 41 43 44 43 42 43 45 47 47 47 47 48 48 48 48 49 48 49 50 50 47 44 42 42 44 47 48 47 47 46 46 46 47 46 45 45 44 43 43 42 41 40 38 37 36 35 34 34 33 31 28 26 24 23 23 24 25 25 25 24 21 20
9 6 4 3 3 6 9 10 11 12 13 13 14 16 19 22 26 30 32 32 33 34 36 38 39 40 40 41 42 43 44 45 45 45 46 47 47 48 48 48 49 50 49 47 42 39 40 41 41 41 43 46 47 47 47 47 47 45 44 43 43 43 42 42 40 38 37 37 36 35 36 34 30 28 26 25 24 23 23 24 25 25 22 19 18
12 11 9 9 8 7 8 10 11 12 12 12 12 13 14 17 21 24 25 26 27 28 30 32 34 35 37 39 40 41 42 44 44 43 44 45 46 48 48 48 49 48 46 43 41 39 38 35 33 36 42 46 48 48 48 47 47 45 43 43 43 42 41 41 39 38 38 37 36 36 36 32 29 27 26 25 25 24 23 24 25 23 20 18 17
11 12 12 11 10 11 11 11 11 11 11 12 12 12 12 13 17 19 21 23 23 24 26 28 30 32 34 35 37 38 39 41 42 42 42 44 46 47 48 47 48 48 47 44 43 40 36 32 34 39 44 46 49 49 48 47 47 45 43 43 42 40 40 40 39 38 38 37 36 36 33 29 27 26 26 25 25 24 23 24 24 23 21 20 19
7 10 13 12 11 11 12 12 12 12 11 13 14 13 13 13 15 17 18 19 20 22 24 26 28 30 32 33 34 36 37 39 40 40 41 43 45 47 47 47 47 48 49 49 47 46 42 39 39 39 40 44 49 50 48 48 48 46 45 43 40 38 38 39 38 38 37 36 35 33 30 27 26 26 24 24 24 24 24 25 25 24 23 22 21
4 7 11 12 12 12 11 11 12 12 12 12 12 13 14 13 14 14 14 14 16 17 20 22 25 27 29 30 32 34 35 37 39 40 41 43 45 46 48 49 48 49 51 50 48 48 49 49 47 44 43 44 46 48 49 50 49 47 46 43 39 37 38 38 38 37 37 35 32 29 27 27 26 25 23 23 24 25 25 26 27 26 25 24 22
6 6 7 9 12 13 12 12 12 12 11 11 10 11 11 11 11 11 11 12 12 14 16 18 20 22 24 26 29 31 33 35 37 39 40 42 44 46 48 49 49 50 52 51 48 48 52 56 55 54 52 48 45 46 50 51 49 48 46 43 39 37 38 38 37 36 35 33 30 29 28 27 26 25 24 25 26 27 28 29 28 27 26 24 23
8 8 6 6 8 11 11 12 12 11 10 10 9 8 8 8 8 8 9 10 11 12 13 14 16 18 20 22 25 28 30 32 35 37 39 41 43 46 48 50 50 49 50 53 50 47 49 53 53 52 52 52 50 48 48 49 49 48 47 44 40 38 38 38 37 37 35 33 32 30 27 25 24 24 25 26 28 29 31 31 29 28 26 24 22
10 9 7 5 6 8 10 10 11 11 9 8 8 6 5 5 6 6 8 8 9 10 11 12 13 15 16 19 22 25 27 30 33 35 38 40 43 45 48 50 51 50 50 51 48 44 44 49 50 46 43 47 52 51 51 53 53 50 47 44 43 42 41 41 41 40 37 35 33 30 26 24 24 26 27 30 31 32 32 32 31 29 27 24 21
11 10 9 8 8 9 10 11 12 11 9 8 7 6 4 3 3 4 6 7 8 9 10 10 11 11 12 14 18 20 23 27 31 34 37 40 42 44 47 49 50 51 52 52 51 50 51 55 55 50 46 50 56 56 56 57 54 50 47 45 44 46 45 44 45 43 41 39 36 31 28 28 28 29 31 33 34 34 33 33 31 29 26 24 23
11 11 11 10 10 11 13 13 12 11 10 9 8 7 6 4 2 1 1 3 5 6 8 9 10 10 11 13 14 15 17 21 26 29 33 36 39 41 44 47 49 50 51 52 53 55 55 56 56 56 56 58 59 58 58 57 53 50 48 46 44 46 47 47 47 45 43 42 38 34 33 33 32 33 35 36 36 36 35 34 30 28 25 24 24
15 16 16 14 13 14 16 16 15 13 11 9 8 7 6 5 5 4 4 4 3 2 3 4 6 8 9 12 13 14 16 19 22 25 28 32 36 38 41 43 45 47 50 52 54 56 57 57 57 58 59 59 59 58 58 58 55 50 48 46 45 46 48 49 49 48 46 43 41 41 40 39 37 37 38 39 38 37 36 34 30 28 26 25 24
Wind_Direction
208 212 215 216 218 219 217 217 216 215 214 213 212 212 212 213 214 215 216 216 217 217 217 218 218 218 219 219 220 220 220 220 220 220 220 220 220 219 220 221 223 224 226 231 234 237 241 245 247 247 253 260 269 276 278 279 282 288 298 307 314 318 316 319 322 329 348 354 248 209 208 212 212 204 208 226 235 229 236 44 51 30 32 43 48
203 211 215 215 217 219 219 219 218 216 214 213 213 212 213 213 215 216 217 217 218 218 218 218 218 219 219 219 219 220 221 222 222 221 221 221 220 220 221 222 224 226 228 233 235 236 240 243 245 246 251 258 268 276 279 281 282 287 300 311 317 317 311 315 323 338 21 120 141 145 165 185 202 201 214 247 212 204 213 162 97 49 52 56 56
201 210 214 215 217 218 220 221 220 218 216 214 213 212 213 214 215 216 217 218 218 219 219 219 219 220 221 222 221 223 224 224 225 225 225 225 223 222 222 224 226 228 231 234 236 236 238 242 244 245 250 255 263 273 278 281 282 286 298 308 312 315 312 315 322 321 189 155 155 155 159 176 204 210 232 241 184 189 203 162 132 104 85 75 71
202 207 212 213 215 217 219 220 220 220 219 216 213 212 212 213 214 215 215 217 218 219 219 219 220 221 222 224 224 226 229 229 229 228 228 227 226 224 225 226 228 231 234 236 237 237 239 241 243 246 250 254 259 267 275 278 280 284 292 299 306 311 305 308 315 294 231 167 171 178 177 188 200 202 217 208 181 189 194 167 147 141 122 96 90
205 205 209 211 214 216 218 219 219 220 219 217 215 213 212 213 213 214 214 216 217 219 219 219 220 221 222 224 225 226 228 229 229 229 227 226 225 225 226 228 231 234 236 238 239 239 239 239 242 246 250 253 257 264 272 275 276 279 286 293 301 299 282 290 298 272 242 196 187 185 177 192 199 187 194 195 192 197 188 175 165 158 147 122 109
209 208 208 210 213 215 217 219 220 219 219 217 216 215 214 214 213 214 215 217 218 219 219 220 220 220 221 222 223 223 225 227 227 227 227 225 225 226 226 228 232 235 237 238 239 240 239 238 239 244 248 253 257 261 267 271 273 276 281 288 293 290 278 281 281 258 242 223 204 196 182 175 181 186 188 192 200 205 193 186 184 176 166 149 134
209 209 208 210 213 215 217 219 220 220 218 217 217 217 216 216 215 215 216 218 219 219 219 220 221 222 223 224 225 225 226 227 228 228 228 227 227 228 229 230 233 236 237 237 239 239 238 237 238 242 246 250 254 258 265 270 271 273 277 281 285 284 281 281 269 251 240 232 223 220 211 201 200 199 196 198 206 212 209 202 198 193 185 175 164
207 208 209 212 215 217 218 219 220 220 219 219 219 218 217 217 216 216 217 219 220 221 220 220 220 222 223 225 227 228 229 230 231 231 231 230 229 230 231 233 235 236 237 238 238 239 239 237 238 241 243 246 251 256 264 269 268 270 273 277 282 282 283 282 261 244 238 237 235 234 233 233 238 232 218 216 217 219 219 214 210 205 201 198 192
210 212 214 216 219 220 220 220 221 220 220 220 219 218 218 218 218 218 218 220 221 222 221 221 221 222 224 226 227 229 230 231 232 233 234 232 231 231 232 234 235 236 237 238 238 238 238 238 240 241 242 245 250 255 262 267 268 270 271 275 280 278 277 274 255 240 236 238 240 237 240 246 248 248 241 233 230 229 225 222 220 217 217 215 211
211 216 219 220 222 224 223 222 223 223 223 222 222 222 222 221 221 221 220 220 221 222 222 222 222 223 224 226 228 229 229 230 231 232 234 234 233 233 233 233 235 236 236 237 237 237 237 237 239 241 242 244 249 254 258 264 267 269 269 271 275 273 272 266 251 240 236 237 241 237 237 246 251 251 247 238 236 236 235 232 228 227 230 233 231
212 215 220 224 226 226 224 224 225 225 225 225 225 225 226 225 225 224 222 221 222 221 221 221 222 224 225 226 228 229 230 230 231 232 232 232 232 233 233 233 235 237 237 237 237 237 236 236 237 239 241 243 247 251 255 260 265 266 264 266 269 269 267 262 248 239 238 239 243 243 241 244 250 250 243 237 235 237 241 238 234 234 239 245 244
212 214 218 223 226 225 223 225 226 225 226 227 227 227 228 228 227 226 225 224 223 221 221 221 221 223 225 226 228 229 231 232 232 233 234 233 232 232 233 232 233 235 236 236 235 235 235 235 236 238 240 242 246 250 252 256 260 261 261 262 264 264 260 256 247 239 239 241 243 247 246 245 251 253 242 237 233 233 236 234 237 245 247 251 253
211 214 218 221 224 224 223 226 226 225 227 228 228 228 228 229 227 227 227 225 225 224 223 223 223 223 224 225 227 229 231 233 234 235 236 236 235 234 233 232 231 232 233 234 234 234 235 236 238 240 241 244 247 250 252 253 255 257 258 259 259 259 255 252 247 242 242 242 242 243 242 241 249 255 249 243 239 241 241 236 243 252 252 255 257
210 214 217 219 223 224 224 227 227 225 227 228 228 228 228 229 228 228 228 227 227 227 226 227 226 226 226 226 227 228 230 233 234 236 237 238 237 236 236 234 233 231 231 234 235 236 237 238 240 243 245 246 247 249 251 251 251 252 253 254 254 253 252 249 245 242 242 242 240 239 238 238 242 249 253 252 250 251 245 239 249 253 243 247 253
209 214 218 221 223 224 224 227 228 227 228 227 227 228 229 229 229 228 229 228 227 227 228 229 229 228 228 228 229 229 230 232 234 236 237 238 238 238 238 237 235 233 232 234 236 237 239 240 242 245 246 246 245 245 247 247 247 247 248 249 249 248 245 243 241 239 239 240 239 237 238 239 240 244 249 252 257 259 250 244 249 243 228 234 244
208 211 218 222 224 224 224 226 227 228 229 228 228 228 228 229 229 229 230 230 229 228 228 229 230 230 230 230 231 231 231 232 233 235 236 237 238 238 238 237 236 234 233 234 235 235 237 240 242 244 245 246 244 241 242 244 243 243 244 245 245 245 241 238 237 236 237 237 238 238 239 242 245 246 247 250 258 263 257 250 247 243 241 245 248
210 213 218 222 223 224 224 225 226 227 228 229 230 230 229 229 229 229 230 231 231 230 230 230 230 231 231 231 232 233 233 233 234 234 235 236 237 238 238 237 235 234 233 233 234 234 234 236 239 242 242 243 242 240 240 241 241 241 241 241 242 243 240 237 234 233 235 234 234 238 242 246 248 248 249 252 255 259 255 250 250 251 257 261 261
214 218 220 220 221 223 225 225 226 226 227 229 230 232 231 230 230 230 230 230 231 231 231 232 232 232 232 232 233 234 234 235 236 236 236 237 237 238 238 238 235 233 232 232 233 234 233 233 236 239 240 241 241 241 241 240 239 238 238 238 239 239 238 235 232 230 231 231 231 234 239 246 250 251 254 256 256 255 250 249 250 252 259 265 269
215 219 220 219 220 222 224 225 226 227 228 228 229 231 232 232 232 231 232 232 232 232 232 233 233 233 233 233 233 234 235 236 237 238 238 238 239 239 239 239 237 234 232 231 232 234 234 232 233 236 238 239 241 242 241 240 238 236 235 234 235 235 234 233 230 229 229 229 229 231 236 243 249 253 257 259 259 255 251 250 250 252 259 266 272
218 218 219 220 221 222 223 225 226 227 228 228 228 229 230 232 232 232 233 233 233 234 234 235 234 234 234 235 235 235 235 236 237 238 238 239 239 239 240 240 239 236 233 232 232 233 234 233 232 234 237 239 240 241 241 239 237 234 232 231 232 232 233 234 230 229 229 227 228 230 233 239 246 252 257 260 260 256 253 254 254 256 260 265 273
221 219 221 223 222 222 223 225 226 227 229 228 226 227 229 230 232 233 233 234 234 234 235 236 236 236 236 236 236 236 236 236 237 238 238 238 239 240 240 240 240 238 235 234 233 232 233 233 232 233 235 238 239 239 240 239 236 233 231 230 230 230 233 234 231 230 230 228 227 229 232 236 242 249 256 260 260 257 254 254 257 260 263 268 274
225 223 223 222 223 223 221 222 224 225 228 228 226 226 228 229 231 233 233 234 235 235 235 237 236 237 238 238 237 237 238 238 237 238 238 238 238 239 239 240 240 239 237 235 234 233 233 233 233 233 234 236 238 238 238 237 235 233 231 231 230 230 232 232 232 232 231 230 229 229 232 235 239 247 254 258 260 259 255 255 257 261 265 269 273
229 225 221 221 224 225 220 220 223 224 226 228 226 225 228 230 231 232 232 234 235 235 236 237 237 238 239 239 238 239 239 239 238 238 238 239 239 239 239 239 239 239 238 237 235 234 233 233 233 234 233 235 237 238 237 236 235 233 232 232 231 232 233 233 233 233 232 231 231 230 232 234 238 245 251 256 259 259 257 257 259 262 265 269 271
237 232 227 225 226 225 222 221 224 224 224 225 226 227 229 230 230 231 233 235 235 234 235 237 238 238 239 239 239 239 240 239 238 238 238 239 239 240 240 239 239 239 238 237 236 235 234 233 232 232 233 234 235 236 236 235 234 233 233 232 233 234 234 234 234 235 234 232 232 232 233 234 237 243 249 254 257 259 259 258 260 264 267 269 271
245 243 237 231 228 226 224 223 224 223 222 222 225 227 229 230 231 231 233 235 234 232 234 237 237 236 237 238 239 240 240 239 239 238 239 239 239 240 240 240 239 239 239 237 236 235 235 233 231 231 231 232 234 235 236 234 234 234 233 233 233 234 234 235 235 236 235 233 234 235 235 235 236 239 245 250 254 257 259 259 260 264 267 269 272
248 247 242 234 231 229 226 225 225 223 222 222 222 225 227 229 231 232 233 233 233 233 234 236 236 235 235 238 239 239 239 239 239 239 240 241 240 240 240 240 240 239 240 238 236 235 235 234 232 230 230 231 233 234 235 235 234 235 234 233 233 233 234 235 236 236 235 234 235 236 237 237 236 237 241 245 249 253 256 257 259 262 266 268 269
252 249 244 238 235 233 230 230 228 225 224 223 222 223 225 227 230 232 232 232 233 233 234 235 235 234 235 237 238 239 239 239 240 241 241 241 241 240 240 241 240 240 240 239 237 235 235 235 234 232 231 231 232 233 233 234 234 235 234 234 234 233 234 235 235 235 234 234 234 236 238 238 237 237 239 241 245 248 251 254 256 257 260 262 264
259 253 250 246 243 239 236 235 232 229 227 225 223 225 226 227 230 231 231 231 233 234 235 236 235 234 236 238 238 239 239 240 241 242 241 241 241 241 241 241 241 240 240 239 237 236 235 235 235 234 232 232 232 232 231 231 233 234 234 233 234 234 234 235 235 235 234 233 233 235 237 238 237 237 238 240 242 244 247 250 252 253 254 256 259
261 259 256 253 250 246 242 240 235 231 229 226 225 226 226 227 229 229 230 231 233 235 235 235 235 235 237 238 238 238 239 240 241 241 241 241 241 241 241 241 241 241 240 239 238 236 235 235 235 234 233 233 233 232 230 229 230 232 233 232 233 233 234 235 235 235 234 233 232 233 236 237 237 237 238 241 242 243 247 250 251 251 252 254 256
269 268 265 262 258 253 248 243 237 233 231 228 226 226 225 226 227 228 229 230 232 235 235 234 235 237 238 238 237 237 239 239 239 240 240 240 240 240 240 240 240 241 241 240 239 237 236 236 235 233 233 234 234 232 229 228 228 230 232 233 232 233 234 235 235 235 234 233 232 233 235 237 238 239 240 242 244 245 247 250 252 251 250 251 253
274 277 276 273 267 257 250 244 239 236 233 230 229 227 226 226 225 227 229 229 231 234 234 233 235 237 237 237 237 236 237 238 238 238 239 239 239 240 239 239 240 240 240 240 239 237 236 236 235 233 233 234 235 233 230 227 227 229 231 233 233 233 234 235 236 235 234 234 233 234 236 237 238 239 241 243 244 245 246 247 250 250 249 248 249
275 280 281 280 275 264 252 245 243 240 235 232 231 228 226 226 226 227 228 228 230 233 233 233 235 236 234 234 235 235 236 237 237 237 237 237 238 239 239 239 239 239 239 239 239 238 236 236 235 234 233 234 235 235 232 229 228 228 230 233 234 234 234 235 236 236 235 235 234 235 237 238 239 240 242 244 246 248 248 246 247 249 249 248 247
275 280 278 274 274 273 264 254 247 244 241 237 233 229 229 229 229 228 227 227 229 232 232 233 233 233 233 233 233 233 235 236 236 236 236 236 237 238 239 239 239 239 239 239 239 238 237 236 236 235 234 233 235 236 233 230 229 229 230 233 235 234 234 235 236 237 237 236 235 236 237 238 239 240 243 246 248 250 250 248 246 247 247 246 245
270 274 275 272 271 272 272 266 255 248 246 242 236 234 235 233 231 229 226 226 229 231 232 233 232 232 233 232 232 233 234 235 235 235 234 235 237 238 239 239 239 238 238 239 239 239 238 237 237 236 236 234 235 236 234 232 231 230 230 233 236 236 236 236 236 237 237 238 236 236 237 238 239 241 243 247 250 252 252 250 247 246 244 244 243
262 266 270 273 273 271 271 271 265 252 245 241 237 236 235 232 231 230 229 228 229 230 231 232 231 231 231 231 232 232 233 233 234 233 234 235 236 237 238 238 238 238 238 239 239 239 239 239 238 238 238 237 235 236 235 233 232 232 231 233 235 237 238 237 237 236 237 238 238 237 236 237 238 241 243 246 250 253 254 251 248 246 244 243 241
260 264 267 270 272 270 268 269 267 252 240 238 236 234 231 230 230 230 231 231 230 230 231 230 230 231 231 231 231 231 231 232 233 232 233 234 236 237 238 237 238 239 238 238 239 239 239 240 240 239 240 239 237 236 236 234 233 232 232 233 234 236 238 238 237 236 236 237 237 235 234 235 236 239 241 244 247 250 251 249 247 246 243 240 237
259 263 266 268 269 268 265 264 261 248 237 234 235 232 229 228 229 229 230 230 230 231 232 232 232 232 232 231 232 233 233 233 233 234 235 236 237 238 238 237 237 237 237 237 238 238 237 238 239 239 240 241 239 238 236 235 234 233 233 233 233 234 236 238 237 236 235 235 235 233 231 231 233 235 237 239 242 244 245 246 246 243 238 234 233
255 261 266 267 268 266 261 256 253 245 234 231 233 232 229 228 229 229 229 228 230 232 234 235 234 234 233 234 236 238 237 236 236 236 237 238 239 239 238 238 237 236 237 238 238 236 235 237 238 239 240 241 242 241 240 237 235 235 235 234 234 233 235 237 237 235 235 234 233 230 228 228 230 233 234 235 239 241 241 241 242 239 232 228 227
241 253 264 267 266 260 250 241 237 233 226 227 232 232 228 227 228 229 229 229 231 234 236 237 236 236 237 238 239 239 238 237 239 240 239 239 239 239 239 239 238 237 237 237 235 234 234 236 238 239 240 241 242 243 243 241 238 237 237 237 235 234 235 236 236 234 233 232 231 228 225 226 229 231 232 232 236 238 237 237 238 234 228 225 225
191 218 251 263 250 235 223 216 214 213 213 219 228 230 228 226 227 228 229 231 234 237 238 237 236 237 239 239 238 238 239 239 240 242 241 240 240 241 241 240 239 239 238 236 234 233 233 235 238 238 239 240 241 241 243 243 241 239 239 239 237 235 234 235 234 233 232 230 228 226 224 224 226 228 228 228 231 232 232 232 232 230 227 224 221
138 137 125 123 162 189 193 193 192 191 194 202 213 222 226 225 226 229 232 236 239 241 240 238 237 238 239 239 239 239 241 242 242 242 242 242 242 242 242 241 241 240 238 235 233 232 232 234 235 235 236 240 241 241 242 243 242 241 240 240 239 236 234 234 233 232 231 230 227 225 225 224 223 223 223 223 224 226 227 226 226 227 225 220 214
124 120 116 115 117 130 155 169 173 176 181 186 194 206 217 222 226 232 237 241 244 245 243 241 241 240 240 241 241 241 242 243 242 242 242 243 242 241 242 242 241 239 237 235 235 234 234 233 232 232 236 240 242 243 242 243 243 242 241 240 238 235 233 233 233 231 230 229 226 226 226 224 221 221 220 218 220 223 224 222 221 220 214 205 205
119 121 121 120 119 120 124 133 145 159 169 171 173 182 197 211 221 228 233 236 240 243 242 242 243 243 243 244 245 244 243 243 243 243 243 243 242 241 241 242 242 239 237 236 236 237 236 234 234 235 237 239 242 244 244 243 243 242 240 240 239 235 232 232 231 230 229 227 225 226 227 225 224 223 220 217 218 220 220 216 211 207 200 196 200
112 123 124 124 125 123 120 122 126 136 153 161 163 169 179 195 209 219 226 232 235 238 240 242 245 246 246 247 248 247 246 246 246 246 244 243 242 242 242 242 241 240 237 236 238 239 236 235 236 237 237 238 240 242 243 242 241 240 239 238 237 233 230 230 229 228 227 225 224 225 226 227 226 225 223 220 216 212 210 206 201 197 194 195 199
84 108 122 126 127 125 125 126 125 130 142 151 158 167 176 185 197 208 219 228 233 238 240 243 247 249 250 251 251 251 251 250 250 248 245 244 244 242 241 241 240 240 238 237 237 238 237 238 239 239 238 238 237 238 241 241 239 238 238 237 234 230 227 225 226 226 224 222 222 224 225 225 224 222 220 215 208 202 199 197 195 192 191 195 199
72 82 104 119 126 130 132 130 128 130 135 138 147 160 168 176 187 197 208 218 226 234 239 243 247 250 252 253 253 253 253 253 252 249 247 248 247 244 243 242 240 239 237 236 236 236 239 240 240 239 239 237 235 237 241 241 238 237 236 234 230 226 223 221 221 222 222 222 222 222 223 223 219 215 213 208 202 197 193 191 190 190 192 195 200
67 66 65 85 110 123 129 129 126 126 127 130 138 148 157 168 178 189 202 211 219 226 233 240 244 246 248 250 251 253 253 253 253 252 249 248 247 246 245 244 240 237 236 236 236 237 238 240 240 238 238 237 238 239 241 239 236 234 233 231 227 222 218 217 218 220 220 221 222 221 221 220 214 205 203 202 198 193 189 186 186 189 193 197 202
62 62 56 56 73 90 104 110 110 110 115 122 130 140 156 174 189 202 210 216 221 226 231 238 242 245 247 247 248 250 250 251 253 254 252 250 248 248 247 246 246 243 239 237 238 238 239 241 241 238 236 236 236 237 239 240 238 234 232 230 225 219 213 211 213 215 214 216 221 220 214 206 200 194 193 193 192 190 188 186 186 188 193 197 201
57 57 54 52 56 66 77 85 90 93 94 95 99 106 117 143 188 214 222 226 229 230 233 235 236 239 242 244 246 248 249 250 250 252 254 253 252 252 252 252 254 254 250 246 244 243 245 247 246 242 238 237 238 240 243 244 243 240 236 231 224 217 212 208 207 208 206 209 214 212 200 192 191 192 192 191 189 189 189 188 188 191 194 196 197
54 55 55 53 53 58 63 69 76 84 87 85 81 77 75 71 67 65 238 237 233 231 234 234 235 237 239 241 243 244 248 251 252 253 256 255 254 253 254 254 256 257 255 253 251 249 250 251 249 246 245 246 249 252 249 246 244 244 240 233 223 216 212 210 208 205 204 207 205 198 193 196 198 197 195 193 191 190 191 190 190 193 196 196 197
54 57 57 57 57 58 59 59 60 67 78 84 83 78 72 57 40 28 15 3 346 307 277 263 258 257 254 252 251 249 249 252 252 253 256 258 257 257 256 256 257 257 256 255 254 253 253 251 249 248 249 250 253 254 249 243 242 241 237 231 224 216 211 209 208 206 205 203 198 192 195 200 201 199 197 195 193 193 193 192 192 193 195 196 198
Height
1502 1505 1508 1511 1513 1515 1517 1519 1521 1523 1525 1527 1529 1532 1534 1537 1539 1541 1544 1546 1548 1550 1552 1553 1555 1557 1558 1560 1561 1563 1565 1567 1568 1570 1571 1572 1574 1575 1576 1578 1579 1580 1581 1582 1583 1584 1585 1585 1586 1586 1587 1587 1588 1588 1588 1589 1589 1589 1589 1589 1590 1590 1589 1589 1589 1590 1590 1591 1591 1592 1593 1594 1595 1596 1596 1597 1597 1597 1597 1597 1598 1598 1598 1598 1598
1500 1502 1505 1508 1510 1512 1514 1516 1518 1520 1522 1524 1526 1529 1532 1534 1536 1539 1541 1543 1545 1547 1549 1551 1553 1555 1556 1558 1560 1562 1564 1565 1567 1568 1570 1571 1573 1574 1575 1577 1578 1579 1580 1581 1582 1583 1584 1584 1585 1585 1586 1586 1586 1586 1587 1587 1588 1588 1589 1589 1589 1589 1589 1588 1589 1589 1590 1591 1591 1592 1593 1593 1594 1595 1596 1596 1596 1597 1597 1597 1598 1598 1598 1598 1598
1496 1498 1501 1504 1507 1509 1512 1513 1515 1517 1519 1522 1524 1527 1529 1531 1533 1536 1538 1540 1542 1545 1547 1549 1551 1553 1556 1558 1560 1561 1563 1564 1566 1567 1569 1570 1571 1573 1574 1575 1576 1577 1579 1580 1581 1582 1583 1583 1584 1584 1585 1585 1585 1585 1586 1587 1587 1587 1588 1588 1588 1588 1588 1588 1588 1589 1590 1590 1591 1592 1593 1594 1594 1595 1595 1596 1596 1596 1597 1597 1598 1598 1598 1598 1598
1491 1494 1498 1501 1504 1506 1508 1510 1512 1515 1517 1519 1521 1523 1525 1528 1530 1532 1535 1537 1540 1542 1544 1547 1550 1552 1555 1557 1559 1560 1562 1563 1565 1566 1567 1569 1570 1571 1573 1574 1575 1576 1577 1578 1579 1581 1582 1582 1583 1583 1584 1584 1584 1585 1585 1586 1586 1586 1586 1587 1587 1588 1588 1588 1587 1588 1589 1590 1591 1592 1593 1593 1594 1594 1595 1595 1596 1596 1597 1597 1598 1598 1598 1598 1598
1487 1490 1494 1497 1499 1502 1504 1507 1510 1512 1514 1515 1517 1520 1522 1524 1527 1530 1532 1534 1537 1539 1542 1545 1548 1550 1553 1555 1557 1558 1559 1560 1562 1563 1565 1566 1568 1569 1571 1572 1574 1575 1576 1577 1578 1579 1580 1581 1582 1582 1582 1583 1583 1584 1584 1584 1585 1585 1585 1586 1586 1586 1588 1587 1587 1588 1589 1589 1590 1591 1592 1593 1593 1594 1594 1595 1595 1596 1596 1597 1597 1598 1598 1598 1599
1485 1487 1490 1493 1496 1500 1502 1504 1507 1508 1510 1512 1515 1517 1519 1522 1525 1527 1530 1532 1534 1537 1540 1543 1545 1548 1549 1551 1552 1554 1555 1556 1558 1560 1562 1564 1566 1568 1569 1571 1572 1574 1575 1576 1577 1578 1579 1580 1581 1581 1581 1582 1582 1583 1583 1583 1584 1584 1584 1584 1585 1585 1586 1586 1586 1587 1588 1588 1589 1590 1591 1592 1593 1593 1594 1595 1595 1596 1596 1597 1597 1597 1598 1598 1599
1484 1486 1488 1491 1493 1496 1498 1500 1503 1504 1506 1510 1512 1515 1517 1520 1522 1525 1527 1529 1531 1534 1537 1540 1542 1544 1546 1547 1549 1550 1552 1553 1556 1558 1560 1563 1565 1567 1568 1569 1571 1572 1574 1575 1576 1577 1578 1579 1579 1580 1580 1581 1581 1582 1582 1582 1583 1583 1583 1583 1584 1584 1585 1585 1586 1586 1587 1588 1588 1589 1590 1591 1592 1593 1594 1595 1595 1596 1596 1596 1597 1597 1597 1598 1598
1480 1483 1485 1487 1489 1491 1493 1496 1498 1500 1504 1508 1510 1512 1514 1516 1519 1522 1524 1526 1528 1531 1534 1537 1539 1541 1543 1544 1546 1547 1549 1552 1554 1557 1559 1561 1563 1565 1566 1568 1569 1571 1572 1573 1574 1575 1576 1577 1578 1578 1579 1580 1580 1580 1581 1581 1582 1582 1582 1582 1583 1583 1584 1584 1585 1585 1586 1587 1587 1588 1590 1591 1592 1593 1593 1594 1595 1595 1595 1596 1596 1597 1597 1597 1597
1476 1479 1480 1482 1484 1486 1489 1491 1494 1498 1502 1504 1506 1508 1511 1514 1516 1518 1521 1523 1525 1528 1531 1533 1536 1538 1540 1541 1543 1545 1547 1550 1552 1554 1557 1559 1561 1562 1564 1566 1567 1569 1570 1571 1572 1573 1574 1575 1576 1577 1578 1578 1579 1579 1580 1580 1580 1581 1581 1581 1582 1582 1583 1583 1584 1584 1585 1586 1587 1588 1589 1590 1591 1591 1592 1593 1594 1594 1595 1595 1596 1596 1596 1597 1597
1473 1476 1477 1478 1480 1482 1485 1488 1492 1496 1498 1501 1503 1506 1509 1511 1514 1515 1517 1520 1522 1525 1528 1530 1532 1535 1537 1538 1540 1542 1544 1547 1550 1551 1553 1556 1558 1560 1561 1563 1565 1567 1568 1569 1570 1572 1573 1574 1574 1575 1576 1577 1577 1578 1578 1579 1579 1580 1580 1580 1581 1581 1582 1582 1583 1584 1584 1585 1586 1587 1588 1589 1589 1590 1591 1592 1593 1593 1594 1594 1595 1595 1596 1596 1596
1469 1472 1474 1476 1477 1480 1484 1486 1489 1493 1495 1498 1501 1503 1506 1508 1510 1512 1514 1517 1519 1522 1525 1527 1529 1531 1533 1535 1537 1540 1542 1544 1546 1548 1550 1552 1554 1556 1558 1560 1562 1564 1565 1567 1568 1569 1571 1572 1572 1573 1574 1575 1576 1576 1577 1578 1578 1579 1579 1579 1580 1580 1581 1581 1582 1583 1584 1584 1585 1586 1587 1588 1588 1589 1590 1591 1591 1592 1593 1594 1595 1595 1596 1596 1596
1463 1468 1470 1472 1475 1477 1480 1483 1485 1489 1491 1494 1497 1500 1503 1505 1507 1509 1511 1514 1516 1519 1522 1524 1526 1528 1530 1532 1535 1537 1539 1541 1543 1545 1547 1549 1551 1553 1555 1558 1559 1561 1563 1564 1565 1567 1568 1569 1570 1571 1572 1573 1574 1575 1575 1576 1577 1577 1578 1578 1579 1579 1580 1580 1581 1582 1583 1584 1584 1585 1586 1586 1587 1588 1589 1589 1590 1591 1592 1593 1594 1594 1595 1595 1595
1457 1461 1464 1467 1470 1472 1475 1477 1480 1483 1486 1489 1493 1496 1498 1500 1503 1505 1507 1510 1513 1515 1518 1520 1522 1524 1526 1529 1531 1534 1536 1538 1540 1542 1544 1547 1549 1551 1553 1555 1556 1558 1560 1561 1562 1564 1566 1567 1568 1569 1570 1571 1572 1573 1574 1574 1575 1576 1576 1577 1577 1578 1578 1579 1580 1581 1582 1583 1583 1584 1584 1585 1586 1586 1587 1588 1589 1590 1591 1592 1593 1593 1594 1594 1594
1452 1454 1457 1460 1462 1466 1469 1471 1474 1478 1481 1484 1487 1490 1493 1495 1498 1501 1504 1507 1509 1512 1514 1517 1519 1521 1523 1526 1528 1531 1533 1535 1537 1539 1541 1544 1546 1548 1550 1552 1554 1555 1557 1558 1560 1562 1563 1565 1566 1567 1568 1569 1570 1571 1572 1573 1573 1574 1575 1575 1576 1577 1577 1578 1579 1580 1581 1581 1582 1582 1583 1584 1585 1586 1586 1587 1588 1589 1590 1591 1592 1592 1593 1593 1593
1447 1449 1451 1453 1456 1460 1464 1467 1470 1473 1476 1479 1482 1485 1488 1490 1493 1497 1500 1502 1505 1508 1510 1513 1515 1518 1521 1523 1525 1528 1530 1532 1534 1536 1538 1540 1543 1545 1547 1549 1551 1553 1555 1556 1558 1560 1561 1562 1563 1564 1565 1566 1567 1568 1570 1571 1571 1572 1573 1574 1575 1575 1576 1576 1577 1578 1579 1580 1581 1581 1582 1583 1584 1585 1586 1587 1587 1588 1589 1590 1591 1591 1592 1592 1593
1442 1444 1446 1448 1451 1456 1459 1462 1465 1469 1472 1474 1477 1480 1482 1486 1489 1492 1495 1498 1501 1503 1506 1509 1512 1514 1517 1519 1522 1524 1527 1529 1531 1533 1535 1537 1540 1542 1544 1546 1548 1551 1552 1554 1555 1557 1559 1560 1561 1562 1563 1564 1565 1566 1567 1568 1569 1570 1571 1572 1573 1574 1574 1575 1576 1577 1578 1579 1579 1580 1581 1582 1583 1584 1585 1586 1586 1587 1588 1589 1589 1590 1591 1592 1592
1436 1437 1439 1442 1447 1451 1454 1457 1460 1463 1467 1469 1471 1474 1477 1481 1484 1487 1491 1494 1496 1499 1502 1505 1508 1510 1513 1516 1518 1521 1523 1525 1527 1530 1532 1534 1537 1539 1541 1544 1546 1548 1549 1551 1553 1554 1556 1557 1559 1560 1561 1562 1563 1564 1565 1566 1567 1568 1569 1570 1571 1572 1573 1573 1574 1575 1576 1577 1578 1579 1579 1580 1581 1582 1583 1584 1585 1586 1586 1587 1588 1589 1590 1591 1591
1430 1431 1434 1438 1442 1446 1449 1452 1455 1457 1460 1463 1466 1469 1473 1476 1479 1483 1486 1488 1491 1494 1497 1500 1503 1506 1509 1512 1515 1517 1519 1522 1524 1527 1529 1531 1533 1536 1538 1540 1542 1545 1546 1548 1550 1551 1553 1554 1556 1557 1558 1559 1560 1562 1563 1564 1565 1566 1567 1568 1569 1570 1571 1572 1573 1574 1575 1576 1576 1577 1578 1579 1580 1580 1581 1582 1583 1584 1585 1586 1587 1587 1588 1589 1590
1426 1428 1431 1434 1437 1440 1442 1446 1449 1452 1455 1458 1462 1466 1469 1472 1474 1478 1481 1483 1487 1490 1493 1496 1499 1502 1505 1508 1511 1513 1516 1518 1521 1523 1526 1527 1530 1532 1534 1536 1539 1541 1543 1545 1547 1548 1549 1551 1553 1554 1555 1556 1558 1559 1560 1561 1562 1563 1564 1566 1567 1568 1569 1570 1571 1572 1573 1574 1575 1576 1577 1577 1578 1579 1579 1580 1581 1582 1583 1584 1585 1586 1587 1587 1588
1421 1423 1426 1428 1430 1433 1436 1440 1443 1446 1449 1453 1458 1462 1464 1467 1470 1473 1476 1479 1483 1486 1488 1491 1494 1498 1500 1503 1507 1509 1512 1515 1517 1520 1521 1524 1526 1528 1531 1533 1535 1537 1539 1541 1543 1545 1546 1548 1549 1551 1552 1553 1554 1556 1557 1559 1560 1561 1562 1563 1564 1566 1567 1568 1569 1570 1571 1572 1573 1574 1575 1576 1577 1577 1578 1579 1579 1580 1581 1582 1583 1584 1585 1586 1586
1415 1418 1419 1421 1424 1428 1431 1435 1439 1443 1446 1449 1454 1457 1459 1463 1465 1468 1471 1474 1477 1480 1483 1486 1489 1493 1495 1498 1502 1505 1508 1511 1513 1515 1517 1520 1522 1524 1527 1529 1531 1533 1535 1537 1539 1541 1543 1544 1546 1547 1548 1550 1551 1553 1554 1556 1557 1558 1559 1561 1562 1563 1564 1566 1567 1568 1569 1570 1571 1572 1573 1574 1575 1575 1576 1577 1578 1579 1580 1581 1581 1582 1583 1584 1585
1410 1412 1414 1417 1421 1424 1428 1432 1436 1440 1442 1445 1449 1452 1455 1458 1460 1463 1466 1469 1472 1475 1478 1481 1484 1488 1490 1493 1497 1500 1503 1506 1508 1510 1513 1515 1518 1521 1523 1526 1527 1529 1531 1533 1535 1537 1539 1541 1542 1544 1545 1547 1548 1549 1551 1553 1554 1555 1557 1558 1559 1560 1561 1563 1564 1565 1567 1568 1569 1570 1570 1571 1572 1573 1574 1575 1576 1577 1578 1578 1579 1580 1581 1582 1583
1409 1411 1413 1416 1418 1421 1425 1428 1431 1434 1437 1440 1444 1447 1449 1452 1455 1458 1461 1463 1467 1470 1473 1476 1480 1482 1485 1489 1492 1495 1498 1500 1503 1505 1508 1511 1514 1516 1519 1521 1523 1525 1527 1529 1531 1533 1535 1537 1538 1540 1541 1543 1544 1546 1548 1549 1551 1552 1554 1555 1556 1557 1558 1560 1561 1563 1564 1566 1566 1567 1568 1569 1570 1571 1572 1573 1574 1575 1575 1576 1577 1578 1579 1579 1580
1408 1410 1412 1414 1417 1419 1422 1424 1426 1429 1433 1436 1439 1441 1444 1447 1451 1453 1455 1458 1462 1466 1468 1471 1475 1478 1481 1485 1487 1490 1492 1495 1498 1500 1503 1506 1509 1512 1514 1516 1519 1521 1523 1525 1527 1529 1531 1533 1534 1535 1537 1539 1540 1542 1544 1546 1547 1549 1550 1552 1553 1554 1555 1556 1558 1560 1561 1563 1563 1564 1565 1566 1567 1568 1569 1570 1571 1572 1573 1573 1574 1575 1576 1577 1577
1406 1407 1409 1411 1413 1415 1417 1419 1421 1424 1427 1430 1433 1436 1439 1442 1445 1448 1451 1454 1458 1461 1464 1466 1470 1474 1477 1479 1482 1485 1487 1489 1492 1495 1498 1502 1505 1507 1509 1511 1514 1516 1518 1520 1523 1525 1526 1528 1529 1531 1533 1534 1536 1538 1540 1542 1544 1545 1547 1548 1549 1551 1552 1553 1555 1556 1558 1559 1560 1561 1562 1563 1564 1565 1566 1567 1568 1569 1570 1570 1571 1572 1573 1574 1575
1403 1404 1406 1408 1409 1410 1412 1414 1416 1418 1421 1424 1428 1431 1434 1437 1440 1443 1446 1450 1453 1456 1459 1461 1465 1469 1471 1473 1476 1479 1481 1484 1487 1490 1494 1497 1499 1502 1504 1506 1509 1511 1513 1515 1517 1520 1521 1523 1525 1527 1529 1530 1532 1534 1536 1538 1540 1542 1543 1544 1546 1547 1548 1550 1551 1553 1555 1556 1557 1558 1559 1559 1561 1562 1563 1564 1565 1566 1566 1567 1568 1569 1570 1571 1572
1401 1402 1403 1405 1406 1407 1408 1410 1412 1414 1416 1419 1423 1425 1428 1431 1434 1437 1442 1446 1449 1452 1454 1456 1460 1463 1466 1467 1470 1473 1476 1479 1482 1485 1489 1491 1494 1496 1499 1501 1503 1505 1507 1509 1512 1514 1516 1518 1521 1523 1525 1526 1528 1530 1532 1534 1536 1537 1539 1540 1542 1543 1545 1546 1548 1550 1551 1552 1553 1554 1555 1556 1557 1558 1560 1560 1561 1562 1563 1564 1565 1566 1567 1568 1568
1399 1400 1400 1401 1402 1403 1404 1406 1408 1410 1412 1415 1418 1421 1423 1426 1429 1433 1437 1440 1443 1446 1449 1451 1454 1457 1459 1461 1464 1468 1471 1474 1477 1480 1484 1486 1488 1491 1493 1496 1498 1500 1502 1504 1507 1510 1512 1514 1516 1519 1521 1522 1524 1526 1527 1529 1531 1533 1535 1536 1537 1539 1541 1543 1544 1546 1548 1549 1550 1550 1551 1552 1553 1555 1556 1556 1557 1558 1559 1560 1562 1563 1564 1565 1565
1397 1397 1398 1398 1399 1400 1402 1403 1405 1407 1410 1412 1414 1417 1419 1423 1426 1429 1432 1435 1438 1440 1443 1446 1449 1451 1452 1455 1459 1463 1466 1469 1473 1475 1478 1480 1483 1486 1488 1491 1492 1494 1497 1499 1502 1505 1507 1509 1511 1514 1516 1518 1519 1520 1522 1524 1527 1528 1530 1532 1533 1535 1537 1539 1541 1543 1544 1545 1546 1546 1547 1548 1550 1551 1552 1553 1553 1555 1556 1558 1559 1560 1561 1562 1563
1395 1395 1396 1396 1397 1397 1399 1401 1402 1404 1406 1408 1410 1412 1415 1418 1420 1424 1427 1430 1433 1435 1438 1442 1443 1444 1447 1451 1455 1458 1461 1464 1467 1470 1472 1475 1478 1480 1483 1485 1487 1490 1492 1495 1498 1500 1502 1504 1506 1509 1511 1512 1513 1515 1516 1519 1522 1524 1526 1528 1529 1531 1533 1535 1537 1539 1540 1541 1542 1543 1543 1545 1547 1548 1549 1550 1551 1552 1554 1555 1557 1558 1559 1559 1560
1393 1394 1394 1394 1394 1395 1396 1397 1398 1399 1401 1404 1406 1408 1411 1414 1416 1419 1421 1425 1427 1430 1433 1436 1437 1438 1443 1447 1450 1454 1456 1459 1462 1464 1467 1470 1473 1475 1478 1481 1483 1485 1487 1490 1492 1495 1497 1499 1501 1503 1505 1507 1508 1509 1512 1515 1517 1520 1522 1524 1525 1528 1529 1531 1533 1535 1536 1537 1538 1539 1540 1542 1543 1544 1545 1546 1547 1548 1550 1552 1553 1554 1555 1556 1557
1390 1391 1392 1392 1392 1392 1393 1394 1394 1396 1398 1399 1401 1405 1407 1409 1411 1413 1416 1420 1422 1425 1428 1430 1431 1434 1439 1442 1446 1449 1451 1453 1456 1459 1462 1466 1469 1471 1473 1476 1478 1480 1483 1485 1487 1489 1492 1495 1496 1498 1500 1501 1502 1504 1507 1510 1513 1515 1518 1520 1521 1524 1525 1527 1529 1530 1532 1533 1535 1536 1537 1538 1539 1540 1541 1542 1543 1545 1546 1548 1549 1550 1551 1553 1554
1387 1387 1388 1389 1389 1389 1389 1390 1391 1393 1394 1395 1398 1401 1402 1404 1406 1409 1412 1416 1417 1419 1422 1425 1428 1431 1435 1438 1441 1444 1446 1449 1451 1455 1458 1461 1464 1466 1468 1470 1473 1475 1478 1480 1482 1484 1487 1489 1491 1493 1494 1496 1498 1499 1502 1505 1508 1511 1514 1515 1517 1519 1521 1523 1525 1526 1528 1529 1531 1532 1533 1534 1535 1536 1537 1538 1540 1542 1543 1544 1545 1546 1547 1548 1550
1385 1384 1385 1385 1386 1386 1386 1386 1388 1389 1390 1393 1395 1397 1398 1401 1404 1408 1411 1414 1415 1416 1419 1421 1424 1428 1430 1434 1437 1439 1441 1444 1447 1450 1454 1456 1459 1461 1463 1466 1468 1471 1473 1474 1477 1480 1482 1484 1486 1488 1490 1491 1493 1494 1497 1500 1503 1506 1509 1511 1513 1515 1517 1519 1520 1522 1524 1525 1526 1527 1529 1530 1531 1532 1533 1535 1537 1538 1539 1540 1541 1542 1542 1544 1546
1382 1382 1382 1382 1382 1383 1383 1384 1385 1386 1388 1390 1391 1392 1395 1398 1401 1405 1408 1411 1413 1415 1417 1420 1422 1425 1428 1430 1432 1434 1437 1440 1443 1446 1448 1451 1453 1455 1458 1461 1463 1466 1468 1470 1472 1475 1477 1479 1481 1483 1485 1486 1487 1489 1492 1496 1498 1501 1504 1507 1508 1510 1512 1514 1515 1517 1519 1520 1521 1523 1525 1526 1527 1528 1529 1531 1533 1535 1536 1537 1538 1538 1539 1540 1542
1380 1380 1379 1379 1379 1380 1380 1381 1382 1383 1384 1385 1386 1388 1392 1395 1397 1401 1403 1407 1410 1413 1416 1418 1421 1423 1425 1427 1429 1432 1435 1438 1440 1443 1445 1447 1449 1450 1453 1456 1459 1462 1464 1466 1468 1469 1471 1474 1476 1478 1480 1480 1482 1484 1487 1490 1493 1496 1499 1501 1503 1505 1506 1508 1510 1512 1513 1514 1516 1518 1520 1522 1523 1523 1525 1528 1530 1531 1532 1533 1534 1535 1536 1537 1538
1377 1377 1376 1376 1376 1377 1377 1378 1379 1380 1380 1380 1382 1386 1389 1392 1394 1397 1400 1403 1406 1409 1411 1414 1417 1419 1422 1425 1427 1430 1432 1434 1436 1438 1440 1442 1443 1445 1448 1451 1453 1456 1458 1460 1462 1464 1466 1468 1470 1472 1474 1475 1477 1479 1481 1485 1488 1491 1493 1495 1496 1499 1500 1502 1504 1506 1508 1509 1511 1513 1516 1517 1518 1519 1521 1524 1526 1527 1528 1529 1530 1531 1532 1533 1534
1375 1375 1374 1374 1374 1374 1375 1376 1376 1377 1377 1378 1380 1383 1386 1389 1390 1393 1396 1399 1401 1404 1406 1408 1411 1413 1415 1419 1422 1424 1426 1428 1429 1431 1433 1435 1438 1440 1443 1445 1447 1450 1452 1454 1456 1459 1461 1462 1463 1465 1467 1469 1472 1473 1476 1479 1482 1485 1487 1488 1491 1494 1495 1497 1499 1501 1502 1504 1506 1508 1511 1512 1513 1515 1517 1520 1522 1523 1524 1525 1526 1527 1528 1529 1530
1374 1373 1373 1372 1372 1372 1373 1373 1374 1374 1375 1376 1378 1380 1383 1385 1387 1390 1393 1395 1397 1399 1400 1403 1405 1407 1410 1415 1418 1419 1421 1423 1425 1426 1429 1432 1434 1437 1439 1441 1443 1445 1447 1450 1452 1454 1454 1455 1456 1458 1461 1464 1466 1468 1470 1473 1476 1479 1481 1483 1486 1489 1490 1492 1494 1496 1498 1499 1501 1503 1505 1507 1509 1511 1513 1515 1517 1518 1519 1520 1522 1523 1524 1525 1528
1372 1372 1372 1371 1371 1371 1371 1371 1372 1372 1373 1374 1376 1378 1380 1383 1385 1388 1390 1391 1393 1395 1397 1400 1403 1406 1410 1413 1415 1416 1417 1420 1422 1424 1426 1429 1432 1433 1435 1437 1439 1441 1443 1446 1447 1447 1448 1449 1450 1452 1454 1457 1460 1462 1463 1466 1469 1472 1475 1479 1481 1483 1485 1487 1489 1491 1493 1494 1496 1498 1500 1502 1504 1506 1508 1510 1511 1512 1514 1516 1518 1519 1521 1523 1525
1372 1371 1371 1370 1370 1369 1370 1370 1370 1371 1372 1373 1375 1376 1379 1381 1384 1386 1387 1389 1392 1394 1397 1400 1403 1406 1408 1410 1412 1413 1414 1416 1419 1421 1424 1426 1428 1429 1431 1433 1435 1438 1440 1441 1442 1442 1443 1443 1445 1446 1447 1449 1452 1455 1457 1459 1462 1466 1470 1473 1475 1477 1480 1482 1484 1487 1488 1489 1491 1493 1495 1497 1499 1501 1503 1505 1506 1507 1509 1511 1513 1516 1518 1521 1523
1372 1371 1370 1370 1369 1369 1369 1369 1369 1370 1371 1372 1374 1376 1378 1380 1383 1385 1387 1389 1392 1394 1396 1398 1400 1402 1404 1406 1407 1410 1411 1413 1415 1417 1420 1422 1423 1425 1428 1430 1432 1434 1436 1437 1438 1439 1440 1441 1441 1441 1441 1442 1445 1447 1450 1453 1456 1459 1463 1466 1467 1470 1474 1477 1479 1481 1483 1485 1487 1489 1491 1493 1495 1497 1499 1500 1501 1503 1504 1507 1510 1513 1515 1518 1520
1372 1371 1370 1370 1370 1369 1369 1369 1369 1370 1371 1372 1373 1375 1377 1380 1382 1383 1385 1387 1389 1391 1393 1395 1397 1398 1400 1401 1403 1405 1407 1409 1410 1413 1415 1417 1419 1421 1423 1425 1427 1430 1431 1433 1434 1436 1438 1439 1438 1436 1436 1437 1439 1440 1443 1446 1449 1452 1456 1459 1461 1465 1469 1472 1474 1475 1477 1480 1483 1485 1488 1491 1493 1495 1496 1496 1497 1498 1499 1502 1506 1509 1511 1514 1516
1373 1372 1370 1370 1370 1369 1369 1369 1369 1370 1371 1372 1373 1374 1375 1378 1379 1381 1383 1384 1386 1388 1390 1392 1394 1395 1397 1399 1400 1402 1404 1405 1407 1409 1411 1412 1414 1415 1417 1419 1421 1424 1425 1426 1427 1429 1431 1433 1432 1432 1431 1431 1431 1432 1435 1438 1441 1445 1449 1452 1456 1460 1463 1465 1468 1470 1472 1475 1478 1481 1485 1488 1490 1493 1494 1494 1493 1493 1495 1499 1502 1505 1508 1510 1513
1373 1372 1371 1370 1370 1369 1370 1369 1369 1370 1371 1371 1372 1373 1374 1375 1377 1379 1380 1382 1384 1385 1387 1389 1390 1392 1394 1396 1398 1400 1402 1403 1405 1407 1408 1409 1410 1411 1412 1414 1415 1417 1419 1420 1420 1421 1422 1422 1423 1425 1425 1426 1426 1427 1428 1430 1434 1438 1442 1446 1450 1454 1457 1459 1462 1464 1467 1470 1474 1478 1481 1484 1486 1489 1492 1493 1491 1490 1491 1495 1499 1502 1504 1506 1509
1372 1372 1371 1371 1370 1369 1369 1369 1369 1370 1371 1371 1372 1372 1373 1374 1375 1376 1378 1379 1381 1383 1384 1386 1388 1389 1392 1394 1396 1397 1399 1401 1402 1404 1405 1406 1407 1408 1408 1409 1410 1412 1413 1413 1414 1414 1413 1413 1414 1416 1418 1421 1424 1424 1423 1424 1428 1432 1437 1441 1445 1448 1450 1453 1457 1460 1463 1467 1470 1473 1476 1479 1482 1485 1488 1491 1490 1488 1489 1492 1495 1498 1501 1503 1506
1372 1372 1372 1372 1370 1370 1369 1369 1369 1369 1370 1371 1371 1371 1372 1373 1373 1375 1376 1377 1379 1380 1382 1383 1385 1387 1389 1390 1392 1394 1396 1397 1398 1399 1400 1401 1402 1403 1404 1404 1404 1406 1407 1407 1407 1408 1408 1408 1409 1411 1413 1415 1418 1420 1421 1422 1423 1427 1431 1435 1439 1442 1444 1448 1452 1455 1458 1462 1466 1469 1472 1476 1479 1481 1485 1489 1490 1488 1487 1489 1492 1495 1498 1500 1503
1372 1372 1373 1373 1372 1371 1369 1368 1368 1368 1369 1369 1370 1370 1371 1371 1372 1374 1375 1376 1377 1379 1380 1382 1383 1384 1386 1387 1389 1391 1393 1394 1395 1395 1396 1396 1397 1397 1398 1397 1398 1399 1400 1401 1403 1404 1405 1406 1407 1409 1411 1411 1411 1412 1413 1414 1417 1421 1426 1430 1433 1436 1438 1441 1445 1448 1452 1457 1462 1465 1469 1472 1475 1478 1482 1485 1487 1487 1486 1487 1489 1492 1494 1497 1499
1373 1373 1373 1374 1374 1372 1370 1368 1368 1368 1368 1368 1368 1369 1370 1371 1372 1373 1374 1375 1376 1377 1378 1380 1381 1382 1383 1384 1385 1387 1388 1390 1390 1391 1391 1392 1392 1393 1393 1392 1393 1393 1394 1396 1397 1399 1399 1399 1401 1404 1405 1405 1404 1403 1403 1405 1410 1416 1421 1423 1426 1430 1433 1435 1437 1440 1445 1450 1455 1460 1464 1467 1471 1475 1479 1482 1483 1484 1485 1485 1486 1489 1491 1493 1496
1374 1373 1374 1374 1374 1372 1370 1369 1368 1368 1368 1368 1368 1368 1369 1370 1371 1372 1373 1374 1375 1376 1377 1378 1379 1380 1380 1381 1382 1383 1384 1385 1386 1387 1387 1387 1387 1388 1388 1388 1388 1389 1390 1391 1392 1392 1392 1393 1395 1396 1395 1394 1394 1395 1397 1399 1403 1409 1413 1416 1419 1423 1428 1431 1433 1436 1440 1444 1447 1453 1457 1460 1464 1470 1475 1478 1479 1481 1482 1482 1483 1486 1488 1490 1492
1374 1373 1373 1374 1374 1372 1371 1370 1369 1370 1369 1369 1368 1369 1369 1370 1370 1371 1372 1374 1374 1375 1376 1376 1377 1377 1378 1378 1379 1380 1380 1381 1382 1382 1383 1382 1382 1383 1383 1383 1384 1385 1386 1386 1386 1386 1387 1388 1388 1388 1388 1388 1388 1390 1392 1393 1395 1400 1407 1412 1415 1417 1421 1424 1427 1430 1434 1437 1440 1444 1447 1450 1456 1464 1469 1472 1475 1478 1479 1479 1480 1482 1485 1487 1490